Home   Weather   Loughton   Past weeks

Flag for United Kingdom Past Weather in Loughton, England, United Kingdom — Yesterday and Last 2 Weeks

Now
52 °F

Cool.


Feels Like: 50 °F
Forecast: 53 / 56 °F
Wind: 8 mph from South

Location: Gravesend-Broadness

Current Time: Dec 8, 2016 at 7:57:28 am

Latest Report: Dec 8, 2016 at 7:00 am


Visibility: N/A

Pressure: 30.27 "Hg

Humidity: 80%

Dew Point: 46 °F

Location of LoughtonLocation

Past Weather in Loughton — Graph

°F

Loughton Temperature Yesterday

Maximum temperature yesterday: 57 °F (at 1:00 pm)
Minimum temperature yesterday: 49 °F (at 6:00 am)
Average temperature yesterday: 53 °F

High & Low Weather Summary for the Past Weeks

 TemperatureHumidityPressure
High57 °F (Dec 7, 1:00 pm)100% (Nov 26, 9:00 am)30.58 "Hg (Nov 26, 9:00 am)
Low23 °F (Nov 30, 5:00 am)50% (Nov 28, 12:00 pm)29.96 "Hg (Nov 23, 6:00 am)
Average42 °F83%30.30 "Hg
* Reported Nov 23 6:00 am — Dec 8 6:00 am, Loughton, Weather by CustomWeather, © 2016

Note: Actual official high and low records may vary slightly from our data, if they occured in-between our weather recording intervals... More about our weather records

Advertising

Loughton Weather History for the Previous 24 Hours

Scroll right to see more
 ConditionsComfort  
Time TempWeatherWind HumidityBarometerVisibility
6:00 am
Thu, Dec 8
52 °FCool.8 mph79%30.29 "HgN/A
5:00 am52 °FCool.10 mph80%30.29 "HgN/A
4:00 am52 °FCool.8 mph80%30.30 "HgN/A
3:00 am52 °FCool.9 mph80%30.31 "HgN/A
2:00 am52 °FCool.8 mph80%30.30 "HgN/A
12:00 am53 °FCool.8 mph81%30.31 "HgN/A
11:00 pm
Wed, Dec 7
53 °FCool.10 mph78%30.31 "HgN/A
10:00 pm53 °FCool.12 mph79%30.31 "HgN/A
9:00 pm52 °FCool.8 mph81%30.31 "HgN/A
8:00 pm53 °FCool.10 mph79%30.32 "HgN/A
7:00 pm53 °FCool.12 mph82%30.30 "HgN/A
6:00 pm53 °FCool.9 mph83%30.30 "HgN/A
5:00 pm53 °FCool.10 mph82%30.30 "HgN/A
4:00 pm53 °FCool.7 mph82%30.30 "HgN/A
3:00 pm56 °FCool.5 mph75%30.29 "HgN/A
2:00 pm57 °FCool.8 mph74%30.29 "HgN/A
1:00 pm57 °FCool.10 mph75%30.28 "HgN/A
12:00 pm56 °FCool.14 mph79%30.29 "HgN/A
11:00 am55 °FCool.9 mph83%30.31 "HgN/A
9:00 am52 °FCool.7 mph91%30.32 "HgN/A
8:00 am51 °FCool.7 mph92%30.30 "HgN/A
7:00 am50 °FCool.5 mph97%30.30 "HgN/A
Weather by CustomWeather, © 2016

See weather overviewHow to use our weather pages